Regional Weather Roundup
Issued by NWS

Home | Current Version | Previous Version | Text Only | Print | Product List | Glossary On
Versions: 1 2 3 4 5 6 7 8 9 10 11 12 13 14 15 16 17 18 19 20 21 22 23 24 25 26 27 28 29 30 31 32 33 34 35 36 37 38 39 40 41 42 43 44 45 46 47 48 49 50
000
ASUS43 KLMK 300510
RWRKY
KENTUCKY REGIONAL WEATHER ROUNDUP
NATIONAL WEATHER SERVICE LOUISVILLE KY
100 AM EDT MON MAR 30 2015

NOTE "FAIR" INDICATES FEW OR NO CLOUDS BELOW 12,000 FEET
WITH NO SIGNIFICANT WEATHER AND/OR OBSTRUCTIONS TO VISIBILITY.

KYZ001>023-026-027-061>063-070>075-300600-
WESTERN AND SOUTH CENTRAL KENTUCKY

CITY           SKY/WX    TMP DP  RH WIND       PRES   REMARKS
PADUCAH        CLOUDY    52  46  80 W6        30.08F
HENDERSON      CLOUDY    54  43  66 W9        30.06S
OWENSBORO      CLOUDY    52  46  79 W9        30.06S
HOPKINSVILLE   CLOUDY    54  46  76 W6        30.08F
BOWLING GREEN  LGT RAIN  52  43  71 SW5       30.09R
GLASGOW        LGT RAIN  50  42  74 SW7       30.08R
$$

KYZ024-025-028>034-038-045-046-053-300600-
NORTH CENTRAL KENTUCKY

CITY           SKY/WX    TMP DP  RH WIND       PRES   REMARKS
LOUISVILLE/SDF CLOUDY    53  42  66 SW8       30.03S
LOUISVILLE/LOU CLOUDY    52  42  69 SW6       30.03S
FORT KNOX      CLOUDY    49  44  83 SW12      30.02F
$$

KYZ035>037-039>044-047>052-055>060-089>105-300600-
NORTHEAST KENTUCKY

CITY           SKY/WX    TMP DP  RH WIND       PRES   REMARKS
LEXINGTON      LGT RAIN  52  38  58 SW16G31   30.03R
COVINGTON      CLOUDY    46  39  76 SW12      29.96F
FRANKFORT      CLOUDY    51  40  65 SW7       30.01R
$$

KYZ054-064>069-076>088-106>120-300600-
SOUTHEAST KENTUCKY

CITY           SKY/WX    TMP DP  RH WIND       PRES   REMARKS
JACKSON        CLOUDY    52  24  33 SW10G20   30.02S
LONDON         CLOUDY    54  25  32 SW15G21   30.06F
SOMERSET       CLOUDY    54  32  43 SW16G23   30.08F
MIDDLESBORO    MOCLDY    55  29  37 S9G16     30.09F
MONTICELLO     CLOUDY    55  35  46 SW13      30.10S
$$



USA.gov is the U.S. government's official web portal to all federal, state and local government web resources and services.